TimeMST,TemperatureF,Dew PointF,Humidity,Sea Level PressureIn,VisibilityMPH,Wind Direction,Wind SpeedMPH,Gust SpeedMPH,PrecipitationIn,Events,Conditions,WindDirDegrees,DateUTC
12:53 AM,24.1,10.9,57,29.80,10.0,West,11.5,-,N/A,,Clear,260,2013-02-23 07:53:00
1:53 AM,26.1,10.9,53,29.77,10.0,West,16.1,23.0,N/A,,Clear,260,2013-02-23 08:53:00
2:53 AM,26.1,12.0,55,29.74,10.0,West,15.0,23.0,N/A,,Clear,280,2013-02-23 09:53:00
3:53 AM,25.0,12.0,58,29.74,10.0,West,6.9,-,N/A,,Clear,280,2013-02-23 10:53:00
5:53 AM,28.0,12.9,53,29.74,10.0,NW,11.5,-,N/A,,Mostly Cloudy,310,2013-02-23 12:53:00
6:53 AM,28.9,14.0,54,29.73,10.0,NW,4.6,-,N/A,,Mostly Cloudy,310,2013-02-23 13:53:00
7:53 AM,32.0,15.1,50,29.75,10.0,WNW,13.8,19.6,N/A,,Mostly Cloudy,290,2013-02-23 14:53:00
8:53 AM,34.0,16.0,48,29.75,10.0,West,13.8,-,N/A,,Overcast,260,2013-02-23 15:53:00
9:53 AM,35.1,16.0,46,29.75,10.0,West,21.9,28.8,N/A,,Overcast,270,2013-02-23 16:53:00
10:53 AM,41.0,18.0,40,29.70,10.0,West,12.7,-,N/A,,Overcast,260,2013-02-23 17:53:00
11:53 AM,41.0,18.0,40,29.68,10.0,West,19.6,26.5,N/A,,Scattered Clouds,260,2013-02-23 18:53:00
12:53 PM,41.0,17.1,38,29.65,10.0,West,23.0,28.8,N/A,,Partly Cloudy,280,2013-02-23 19:53:00
1:53 PM,39.9,18.0,41,29.64,10.0,West,13.8,-,N/A,,Partly Cloudy,260,2013-02-23 20:53:00
2:53 PM,42.1,19.0,40,29.62,10.0,WNW,15.0,20.7,N/A,,Clear,290,2013-02-23 21:53:00
3:53 PM,37.9,18.0,45,29.65,10.0,West,15.0,-,N/A,,Clear,280,2013-02-23 22:53:00
4:53 PM,37.0,19.0,48,29.68,10.0,West,11.5,-,N/A,,Mostly Cloudy,280,2013-02-23 23:53:00
5:53 PM,33.1,19.9,59,29.70,10.0,West,4.6,-,N/A,,Overcast,270,2013-02-24 00:53:00
6:53 PM,32.0,21.0,64,29.72,10.0,WNW,6.9,-,N/A,,Overcast,300,2013-02-24 01:53:00
7:53 PM,33.1,21.0,61,29.73,10.0,NW,10.4,-,N/A,,Overcast,310,2013-02-24 02:53:00
8:53 PM,30.0,26.1,85,29.75,9.0,WNW,13.8,-,0.00,Snow,Light Snow,290,2013-02-24 03:53:00
9:53 PM,30.9,26.1,82,29.75,10.0,NW,11.5,-,0.00,,Overcast,310,2013-02-24 04:53:00
10:53 PM,30.0,25.0,82,29.75,9.0,North,10.4,-,N/A,,Overcast,360,2013-02-24 05:53:00
11:01 PM,30.2,24.8,80,29.73,3.0,North,8.1,-,0.00,Snow,Light Snow,350,2013-02-24 06:01:00
11:10 PM,30.2,26.6,86,29.73,2.0,NNW,5.8,-,0.00,Snow,Light Snow,340,2013-02-24 06:10:00
11:14 PM,30.2,26.6,86,29.73,1.8,NNW,3.5,-,0.00,Snow,Light Snow,340,2013-02-24 06:14:00
11:24 PM,30.2,26.6,86,29.73,1.0,NNW,4.6,-,0.00,Snow,Light Snow,340,2013-02-24 06:24:00
11:32 PM,30.2,26.6,86,29.74,1.0,North,4.6,-,0.00,Snow,Light Snow,360,2013-02-24 06:32:00
11:53 PM,30.0,28.0,92,29.76,1.0,North,8.1,-,0.00,Snow,Light Snow,350,2013-02-24 06:53:00